Location: ?
(35.4554°N, 139.3092°E)
Time: 21:50:23
(UTC+00:00)

Nadezhda 3 Rocket - Pass Details

Date: 21 April 2021
Orbit: 956 x 1000 km, 82.9° (Epoch: 10 May)

Event Time Altitude Azimuth Distance (km) Brightness Sun altitude
Exits shadow 17:24:31 48° 305° (NW) 1,280 4.4 -28.8°
Drops below altitude 10° 17:29:51 10° 355° (N) 2,760 6.8 -28.0°
Sets 17:32:28 0° 1° (N) 3,706 7.6 -27.6°
